This is the latest recevied weather packets stored in our database for station/object IZ1UQG-N2. If no packets are shown the sender has not sent any weather packets the latest 10 day(s).
| Time | Temp. | Humidity | Pressure | Rain* | Wind** | Luminosity | Snow |
|---|---|---|---|---|---|---|---|
| 1777624347 | 14.44° C | 43% | 1026.3 hPa | 0 mm | - | 278 W/m² | - |
| 1777624327 | 14.44° C | 43% | 1026.3 hPa | 0 mm | - | 278 W/m² | - |
| 1777624287 | 14.44° C | 44% | 1026.4 hPa | 0 mm | - | 276 W/m² | - |
| 1777624227 | 14.44° C | 45% | 1026.4 hPa | 0 mm | - | 274 W/m² | - |
| 1777624167 | 14.44° C | 45% | 1026.4 hPa | 0 mm | - | 271 W/m² | - |
| 1777624148 | 14.44° C | 45% | 1026.4 hPa | 0 mm | - | 271 W/m² | - |
| 1777624107 | 14.44° C | 46% | 1026.3 hPa | 0 mm | - | 269 W/m² | - |
| 1777624047 | 14.44° C | 46% | 1026.4 hPa | 0 mm | - | 265 W/m² | - |
| 1777623986 | 14.44° C | 46% | 1026.4 hPa | 0 mm | - | 262 W/m² | - |
| 1777623968 | 14.44° C | 46% | 1026.4 hPa | 0 mm | - | 262 W/m² | - |
| 1777623928 | 14.44° C | 47% | 1026.5 hPa | 0 mm | - | 260 W/m² | - |
| 1777623868 | 14.44° C | 49% | 1026.3 hPa | 0 mm | - | 260 W/m² | - |
| 1777623808 | 14.44° C | 50% | 1026.4 hPa | 0 mm | - | 260 W/m² | - |
| 1777623788 | 14.44° C | 50% | 1026.4 hPa | 0 mm | - | 260 W/m² | - |
| 1777623747 | 14.44° C | 50% | 1026.4 hPa | 0 mm | - | 258 W/m² | - |
| 1777623687 | 14.44° C | 49% | 1026.4 hPa | 0 mm | - | 258 W/m² | - |
| 1777623626 | 14.44° C | 49% | 1026.5 hPa | 0 mm | - | 257 W/m² | - |
| 1777623608 | 14.44° C | 49% | 1026.5 hPa | 0 mm | - | 257 W/m² | - |
| 1777623568 | 14.44° C | 50% | 1026.4 hPa | 0 mm | - | 253 W/m² | - |
| 1777623508 | 14.44° C | 50% | 1026.4 hPa | 0 mm | - | 250 W/m² | - |
| 1777623460 | 14.44° C | 50% | 1026.5 hPa | 0 mm | - | 232 W/m² | - |
| 1777623447 | 14.44° C | 50% | 1026.4 hPa | 0 mm | - | 246 W/m² | - |
| 1777623427 | 14.44° C | 50% | 1026.4 hPa | 0 mm | - | 246 W/m² | - |
| 1777623387 | 14.44° C | 49% | 1026.4 hPa | 0 mm | - | 243 W/m² | - |
| 1777623327 | 14.44° C | 49% | 1026.4 hPa | 0 mm | - | 239 W/m² | - |
* Rain latest hour (hover to see other rain measurements)
** Current wind speed in m/s (hover to see current wind gust speed)